Location: Bastelaar
(51.0950°N, 3.8602°E)
Time: 18:36:40
(UTC+00:00)

Cosmos 1400 Rocket - Pass Details

Date: 18 November 2025
Orbit: 476 x 514 km, 81.1° (Epoch: 10 December)

Event Time Altitude Azimuth Distance (km) Brightness Sun altitude
Rises 17:05:02 0° 154° (SSE) 2,618 6.2 -11.2°
Reaches altitude 10° 17:07:34 10° 137° (SE) 1,733 5.1 -11.6°
Maximum altitude 17:10:22 20° 90° (E) 1,234 4.0 -12.0°
Enters shadow 17:10:59 19° 76° (ENE) 1,263 4.0 -12.1°
